RH
44 37 40 31 25 28 27 25 26 23 20 19 18 19 17 17 16 17 17 17 15 15 14 14 14 14 12 12 13 13 12 13 15 15 26 24 67 100 100 100 100 98 86
36 40 40 38 34 29 29 26 24 23 23 23 21 20 19 18 17 16 15 16 16 16 16 16 15 15 15 13 13 14 13 13 14 13 15 18 24 27 100 100 100 100 100
49 43 38 40 46 45 36 35 34 29 28 26 23 22 20 18 18 18 19 18 18 18 17 15 15 14 12 13 14 15 15 14 14 15 12 12 15 26 32 98 100 100 100
24 36 48 48 40 37 37 36 35 34 30 27 25 21 20 20 20 20 20 22 22 20 20 18 18 17 19 20 21 20 19 16 15 14 12 12 12 16 20 37 88 100 100
22 23 24 26 28 36 44 45 37 30 28 27 25 23 20 18 19 21 22 22 22 22 22 20 20 20 19 22 22 21 19 17 18 16 14 12 12 12 12 16 20 39 76
13 15 17 19 23 28 28 32 38 38 35 30 26 23 22 22 22 23 23 24 24 23 22 22 23 25 24 24 24 22 19 18 16 16 16 16 16 15 14 13 13 14 22
9 10 11 12 12 13 15 20 24 26 29 30 29 28 27 27 28 27 26 26 28 27 25 25 28 29 31 29 28 26 25 23 22 22 22 20 20 18 16 15 14 13 14
10 10 10 10 11 13 14 15 18 22 26 27 25 23 24 24 25 26 28 31 30 30 32 32 30 29 27 26 28 29 30 29 26 23 17 17 19 21 19 14 10 12 12
11 11 11 10 10 10 11 12 13 15 16 16 18 20 21 21 21 21 22 21 21 22 22 22 22 22 22 19 18 18 19 18 17 16 14 13 12 13 15 15 12 10 10
13 13 12 11 11 10 10 11 11 13 14 15 16 17 19 19 18 18 18 17 15 13 13 14 16 18 18 17 16 15 14 13 11 10 10 11 10 11 10 10 8 8 10
15 14 12 11 10 10 10 10 10 10 10 10 10 11 11 11 11 11 11 10 10 14 18 19 20 18 16 15 14 12 10 10 9 9 9 10 10 9 9 8 7 8 8
16 15 14 12 11 10 10 10 10 10 10 10 10 10 9 9 9 9 9 10 12 14 14 12 10 10 11 11 10 10 8 9 9 9 9 9 9 8 8 8 7 6 5
20 19 17 15 13 11 10 10 10 11 12 11 10 10 9 9 9 9 9 9 9 9 10 10 9 9 10 10 10 10 10 10 10 10 10 10 9 9 8 7 6 6 5
27 25 21 19 16 13 10 9 9 10 10 11 11 12 13 13 12 11 11 11 11 11 11 12 12 12 13 16 16 13 13 15 14 12 13 12 8 7 7 6 5 5 4
26 27 26 24 21 18 14 11 10 10 10 10 10 12 16 16 16 16 16 15 14 14 15 16 19 22 23 21 18 18 16 15 14 11 9 9 8 7 6 4 4 4 4
23 24 27 29 25 22 20 17 12 11 13 14 15 17 18 20 21 20 21 22 20 21 27 30 32 30 30 24 20 17 19 20 16 17 10 6 5 4 4 4 4 3 3
24 23 25 28 28 26 26 24 21 16 12 13 16 19 19 21 21 22 25 26 29 32 40 44 40 34 24 21 24 26 20 16 19 8 7 5 4 5 4 4 3 2 2
20 23 24 25 28 27 27 26 26 23 18 14 14 18 19 18 20 23 27 31 34 40 44 41 37 34 31 28 28 22 21 19 10 8 7 7 7 5 4 3 3 3 3
19 20 20 21 21 24 26 25 24 24 24 20 16 16 15 15 17 23 26 31 38 45 44 42 39 41 38 34 31 24 18 13 13 9 6 4 3 3 2 2 2 2 2
11 13 17 20 21 20 20 21 22 23 23 23 23 18 16 16 19 27 32 40 46 47 53 51 48 41 42 36 29 19 18 15 9 6 4 3 3 3 2 1 1 1 2
10 11 11 13 14 18 20 20 20 21 22 26 25 24 22 20 23 29 36 45 48 58 58 51 47 47 46 41 23 21 17 9 8 5 5 4 3 2 2 1 1 1 1
9 10 10 10 10 11 16 19 20 18 21 24 26 26 26 25 26 29 40 47 52 56 51 48 49 46 46 29 26 24 12 23 24 7 6 5 4 3 2 1 1 1 1
8 8 9 9 8 9 11 14 15 19 20 22 25 26 28 29 29 32 39 50 52 47 49 56 60 48 44 27 33 20 38 62 56 20 8 7 5 3 2 1 1 1 1
6 6 7 7 7 9 10 10 13 18 21 22 27 27 27 28 30 32 41 53 53 41 42 53 48 57 32 29 31 22 88 86 68 20 11 7 5 4 3 2 2 1 1
6 6 6 6 7 8 9 8 9 12 17 20 28 29 26 29 31 33 37 44 42 35 38 41 47 51 24 32 25 42 100 94 76 21 11 6 4 4 3 3 2 2 2
6 6 6 6 6 7 8 9 9 10 13 16 24 32 27 28 30 31 32 36 34 30 32 40 46 52 31 35 30 99 100 89 73 21 7 5 4 4 4 4 3 3 3
Wind_Speed
110 110 107 106 107 106 106 105 102 101 101 103 103 103 102 103 104 102 100 99 101 102 101 99 100 99 100 98 96 94 91 89 85 82 84 81 84 85 81 76 71 72 76
115 113 112 111 111 110 108 108 108 106 104 104 104 104 104 104 104 103 102 99 98 98 98 99 99 96 94 94 91 91 90 88 86 85 84 84 84 82 89 87 78 71 72
119 119 118 117 115 114 114 112 110 110 109 109 108 108 108 108 107 105 104 103 102 101 100 99 98 97 96 94 94 93 90 89 89 88 87 86 85 85 83 91 91 87 78
122 122 121 120 120 119 118 118 116 114 113 112 111 110 110 110 110 108 106 106 106 105 104 104 103 101 100 99 98 97 95 93 93 92 91 90 87 85 85 89 95 98 93
117 119 121 123 123 121 120 119 118 118 119 119 117 116 116 115 114 112 111 110 109 108 107 106 105 105 106 103 102 102 102 101 101 98 94 92 91 91 89 90 91 97 100
115 116 116 116 117 119 120 120 120 120 118 118 118 118 117 116 116 115 113 113 112 111 110 110 109 109 106 106 105 104 105 103 101 100 98 98 97 96 91 90 94 92 97
108 111 113 113 115 116 115 116 117 117 118 118 118 118 117 116 116 115 115 114 113 112 110 109 109 108 109 109 109 108 106 105 105 102 102 99 99 98 98 96 97 96 96
100 101 104 107 107 107 109 112 114 114 114 114 113 112 111 109 109 109 110 110 111 111 111 109 109 109 108 108 108 109 108 108 107 106 103 100 99 100 100 99 99 100 97
92 95 97 98 100 102 105 107 108 110 111 110 109 110 110 109 108 107 106 105 104 103 103 103 102 101 102 104 102 102 103 104 103 103 102 100 98 98 100 103 101 99 103
86 89 91 93 94 95 98 100 102 103 105 104 104 105 105 105 105 104 104 103 102 101 102 103 102 102 101 100 100 99 98 97 98 99 99 100 100 100 97 97 100 101 99
81 85 86 86 88 90 91 92 94 95 96 95 96 97 98 99 99 100 100 100 98 96 97 96 98 99 99 99 97 98 98 99 99 99 99 101 101 100 100 98 94 94 94
75 79 80 83 84 85 85 86 86 87 87 89 88 88 90 91 92 93 93 93 92 91 92 93 94 95 95 96 94 97 98 97 99 100 100 103 105 103 103 101 99 96 92
69 72 77 80 80 80 81 82 81 81 81 81 81 82 83 85 87 88 88 88 88 89 90 92 93 92 92 94 95 95 95 96 98 101 103 105 106 106 106 104 102 102 99
72 72 73 74 77 77 77 77 77 77 77 77 77 77 77 77 78 80 80 80 81 82 83 84 86 87 87 87 89 91 92 94 98 101 103 105 105 104 107 108 106 106 104
73 70 69 69 70 74 75 74 74 74 73 73 73 73 73 74 74 74 74 74 75 76 77 78 78 80 83 85 86 88 90 92 95 97 98 99 104 107 109 111 109 107 105
77 74 72 69 71 70 70 72 73 72 73 72 72 70 70 70 70 71 71 72 71 71 71 73 76 77 79 82 82 83 84 87 86 90 98 98 100 101 104 106 107 106 102
79 78 77 75 73 73 71 71 71 73 72 71 70 70 70 69 69 69 69 69 70 69 71 73 74 76 78 75 75 76 77 77 84 89 92 94 92 92 94 97 98 96 99
78 78 78 78 76 76 74 71 69 70 72 71 70 70 69 68 68 68 69 69 69 70 72 72 72 72 70 68 69 72 71 77 81 88 86 84 85 86 86 87 86 84 91
79 79 79 78 78 77 75 74 73 69 69 70 71 69 67 66 66 66 68 68 68 69 68 68 67 65 65 64 69 67 70 73 79 80 79 76 75 79 80 78 78 78 81
75 77 78 78 78 77 76 75 74 71 69 66 69 69 67 65 65 65 66 66 65 64 64 64 62 62 63 62 66 62 66 69 70 74 71 70 67 69 72 70 72 72 75
70 72 75 77 76 76 75 74 71 71 67 67 66 66 67 65 64 65 65 64 62 62 63 61 60 61 57 64 58 58 60 56 58 62 59 60 55 58 60 61 64 69 74
68 68 71 74 74 73 74 73 72 68 68 68 66 65 65 66 66 65 64 62 62 61 60 59 59 54 55 55 53 53 49 47 53 50 50 49 48 50 52 53 58 63 66
64 65 66 71 71 68 70 70 69 68 68 67 66 65 63 64 66 66 63 63 62 58 57 56 56 48 51 48 46 47 38 42 45 51 48 48 49 45 45 45 49 54 58
59 61 62 65 64 63 67 69 68 67 65 64 65 66 62 61 64 66 63 62 61 58 55 55 48 46 47 40 41 37 30 42 40 44 47 45 43 39 35 35 38 44 53
53 55 57 59 58 60 62 65 66 65 65 63 62 65 64 61 61 64 63 61 60 56 54 51 43 43 42 36 36 27 34 35 35 39 38 38 36 30 27 28 33 39 47
50 53 55 57 57 55 57 57 58 63 66 67 65 65 65 61 61 63 63 60 57 54 51 46 40 39 39 33 31 24 34 27 26 22 27 32 27 21 22 23 28 34 45
Wind_Direction
240 241 243 243 243 243 244 244 244 245 246 247 248 248 249 251 252 253 254 255 257 259 259 260 261 261 262 263 263 263 262 260 258 258 256 255 249 249 254 258 251 252 256
242 242 244 245 245 246 246 245 245 246 246 248 249 250 250 250 251 252 254 254 255 257 258 259 259 260 261 261 263 263 263 261 260 258 257 256 253 252 243 247 254 246 249
243 243 243 244 245 246 247 248 248 248 248 248 249 249 250 251 252 252 252 253 254 254 255 257 258 259 260 261 261 261 262 261 260 258 258 256 254 249 247 242 242 248 255
242 243 244 246 246 247 248 248 249 250 251 251 251 252 252 253 253 254 254 254 254 255 255 256 257 258 259 260 259 259 260 261 261 261 260 259 256 250 246 243 241 243 245
243 244 244 245 246 246 248 249 250 251 252 252 252 253 254 254 254 254 254 255 256 256 258 259 259 257 258 260 260 259 259 259 259 260 258 257 255 253 251 247 244 243 244
245 245 246 246 247 247 247 248 249 250 251 252 252 253 255 255 256 256 255 256 256 257 257 258 259 259 260 262 263 262 261 260 260 260 260 258 257 255 251 249 248 243 241
244 245 246 247 247 248 249 249 250 250 251 251 252 254 255 256 256 256 257 256 257 257 258 259 259 259 259 262 263 263 263 262 262 263 261 258 256 254 252 248 245 244 240
243 244 245 245 246 247 248 249 249 251 252 252 252 253 254 255 256 257 257 258 258 259 260 260 260 260 260 262 262 261 262 262 262 263 262 260 258 256 254 250 245 242 240
243 242 243 244 244 245 246 247 249 250 251 252 253 254 254 255 256 256 257 257 258 259 260 260 261 262 261 260 260 261 260 261 261 261 263 262 259 256 254 249 245 240 239
242 243 243 244 244 244 245 246 247 248 249 250 251 252 253 254 255 256 257 258 259 259 259 260 260 261 262 263 262 261 263 263 262 261 261 261 260 259 256 252 248 243 239
242 242 242 243 244 245 245 246 247 248 249 249 249 250 251 252 253 254 255 256 257 256 256 257 258 259 259 259 260 261 261 261 263 262 261 261 260 258 257 257 252 247 240
244 243 243 243 243 244 244 246 246 247 248 249 249 249 250 250 250 251 251 252 253 254 255 256 257 259 259 259 261 262 262 262 262 262 261 261 260 259 258 256 254 250 242
243 243 244 243 243 244 244 245 246 247 248 249 249 249 249 249 249 250 251 252 253 254 254 255 256 258 259 259 260 261 262 261 262 262 262 261 260 260 259 257 255 253 248
242 242 243 244 245 244 243 244 244 244 245 246 247 248 248 249 249 250 251 252 253 253 255 256 257 258 259 259 260 260 261 262 261 261 261 261 263 262 260 256 252 249 247
241 243 245 245 245 246 245 243 244 245 245 246 246 246 248 249 250 251 251 252 253 254 255 255 256 257 258 259 261 262 263 263 263 263 264 262 259 258 257 256 254 249 246
238 241 242 243 243 244 246 246 245 244 244 245 247 247 247 248 249 250 251 252 252 253 254 254 255 257 259 261 262 264 265 266 267 268 264 264 262 259 258 257 255 254 248
238 240 241 242 242 242 245 247 246 245 245 245 246 247 247 248 249 250 251 251 252 253 254 255 257 258 260 263 265 267 268 271 270 268 267 266 267 265 261 257 255 250 247
242 242 243 244 244 243 244 244 245 246 246 245 244 245 246 247 249 250 251 251 252 253 254 255 257 259 263 266 269 272 275 274 273 271 272 269 266 264 261 257 254 248 245
243 243 243 243 244 243 244 243 242 243 245 246 245 245 245 246 248 249 250 250 251 253 254 256 259 262 266 271 274 276 274 275 273 273 272 269 266 263 261 257 253 246 240
241 243 244 243 242 241 242 242 242 241 240 243 245 246 246 247 248 248 248 249 250 252 254 257 261 264 269 274 275 275 275 275 276 275 275 273 265 261 258 254 249 245 238
241 241 241 243 242 242 242 241 240 240 239 240 242 243 244 245 246 247 248 249 250 252 255 259 262 266 272 274 275 276 278 278 276 278 278 273 266 261 257 250 245 238 233
240 239 239 240 240 240 239 239 238 237 237 239 239 240 242 242 243 245 246 249 251 253 256 259 262 267 271 271 276 280 279 284 286 289 285 284 281 269 260 248 240 235 229
240 238 236 237 238 237 238 238 238 236 235 236 238 239 240 241 241 243 245 247 250 253 257 260 264 268 269 271 276 280 282 292 284 294 293 288 280 269 260 248 239 231 224
240 238 236 237 236 235 235 235 234 234 233 232 235 238 239 240 240 241 243 246 249 252 255 258 263 268 264 267 272 274 277 281 281 293 287 282 271 263 255 247 235 224 218
240 239 238 237 236 234 235 234 231 230 229 228 230 236 236 237 238 239 241 243 246 248 252 257 262 262 260 264 271 258 248 262 262 280 270 264 257 247 237 227 217 211 206
239 239 236 235 236 233 234 233 232 230 228 226 224 230 232 232 236 237 238 240 243 246 249 254 258 258 258 260 258 240 257 238 262 242 236 234 226 207 198 188 190 195 196